TimeMST,TemperatureF,Dew PointF,Humidity,Sea Level PressureIn,VisibilityMPH,Wind Direction,Wind SpeedMPH,Gust SpeedMPH,PrecipitationIn,Events,Conditions,WindDirDegrees,DateUTC
12:53 AM,39.0,18.0,43,30.20,10.0,SSW,4.6,-,N/A,,Clear,200,2012-11-24 07:53:00
1:53 AM,37.0,18.0,46,30.19,10.0,Calm,Calm,-,N/A,,Clear,0,2012-11-24 08:53:00
2:53 AM,35.1,19.0,52,30.20,10.0,SSW,6.9,-,N/A,,Clear,200,2012-11-24 09:53:00
3:53 AM,37.0,19.0,48,30.18,10.0,South,8.1,-,N/A,,Clear,190,2012-11-24 10:53:00
4:53 AM,37.0,19.0,48,30.18,10.0,South,5.8,-,N/A,,Clear,190,2012-11-24 11:53:00
5:53 AM,34.0,19.0,54,30.22,10.0,SSW,3.5,-,N/A,,Clear,210,2012-11-24 12:53:00
6:53 AM,30.9,19.0,61,30.26,10.0,SSW,3.5,-,N/A,,Clear,200,2012-11-24 13:53:00
7:53 AM,33.1,21.0,61,30.26,10.0,SSW,4.6,-,N/A,,Clear,200,2012-11-24 14:53:00
8:53 AM,44.1,21.9,42,30.24,10.0,Calm,Calm,-,N/A,,Clear,0,2012-11-24 15:53:00
9:53 AM,52.0,18.0,26,30.21,10.0,Calm,Calm,-,N/A,,Clear,0,2012-11-24 16:53:00
10:53 AM,55.9,18.0,23,30.19,10.0,Variable,3.5,-,N/A,,Clear,0,2012-11-24 17:53:00
11:53 AM,62.1,19.9,20,30.15,10.0,Calm,Calm,-,N/A,,Clear,0,2012-11-24 18:53:00
12:53 PM,66.0,21.9,19,30.10,10.0,Calm,Calm,-,N/A,,Clear,0,2012-11-24 19:53:00
1:53 PM,68.0,21.0,17,30.06,10.0,Variable,3.5,-,N/A,,Clear,0,2012-11-24 20:53:00
2:53 PM,69.1,19.9,15,30.05,10.0,NNE,5.8,-,N/A,,Clear,20,2012-11-24 21:53:00
3:53 PM,69.1,17.1,14,30.03,10.0,Calm,Calm,-,N/A,,Clear,0,2012-11-24 22:53:00
4:53 PM,66.9,18.0,15,30.03,10.0,Calm,Calm,-,N/A,,Clear,0,2012-11-24 23:53:00
5:53 PM,55.0,19.9,25,30.06,10.0,Calm,Calm,-,N/A,,Clear,0,2012-11-25 00:53:00
6:53 PM,52.0,19.9,28,30.08,10.0,SSW,9.2,-,N/A,,Clear,200,2012-11-25 01:53:00
7:53 PM,51.1,21.9,32,30.07,10.0,South,9.2,-,N/A,,Clear,190,2012-11-25 02:53:00
8:53 PM,46.0,21.9,39,30.05,10.0,SSW,9.2,-,N/A,,Clear,200,2012-11-25 03:53:00
9:53 PM,46.0,23.0,40,30.04,10.0,SSW,9.2,-,N/A,,Clear,200,2012-11-25 04:53:00
10:53 PM,44.1,21.9,42,30.02,10.0,SSW,9.2,-,N/A,,Clear,200,2012-11-25 05:53:00
11:53 PM,41.0,21.9,47,30.00,10.0,South,6.9,-,N/A,,Clear,190,2012-11-25 06:53:00